sat.trackr.live / text

‹ back to catalog

STARLINK-11740 [DTC]

NORAD 64382 · 2025-127N

PAYLOAD ACTIVE UNKNOWN

§ Identity

Operator
Country
US
Launch date
2025-06-13
Launch site
AFETR
Launch vehicle
Mass (kg)
RCS (m²)

Purposes: comms

External: N2YO · Heavens-Above · Gunter

§ Orbital elements

Epoch: 2026-09-20T22:32:55.372128Z

Period
91.66 min
Inclination
43.0010°
Eccentricity
0.0000996
Mean motion
15.70998280 rev/d
Perigee alt
355.4 km
Apogee alt
356.7 km
Semi-major
6,734.2 km
B*
9.0895e-4
RAAN
347.3141°
Arg perigee
342.6115°
Mean anomaly
17.4719°
Rev number
7,421

§ Raw data

STARLINK-11740 [DTC]1 64382U 25127N   26263.93952977  .00118646  00000+0  90895-3 0  99992 64382  43.0010 347.3141 0000996 342.6115  17.4719 15.70998280 74214

JSON: /api/v1/satellites/64382 · /tle

For live sub-satellite position, see the globe view (requires WebGL).

§ Visibility from observer

Set your observer location to see the next 7 days of passes ≥ 10°. The values pass through the URL so the page stays shareable.

No JS? Fill the form by hand. The geolocation button needs JavaScript.